| time (UTC) | temp F | wind direction | speed MPH | gust MPH | rain 1hr in | rain 24hr in | rain mn in | humidity % | barometer mb |
| 20260503210004 | 39 | 46 | 2.0 | 9.0 | 0.13 | 0.84 | 0.84 | 98 | 995.4 |
| 20260503205004 | 39 | 65 | 1.0 | 4.0 | 0.15 | 0.82 | 0.82 | 98 | 995.7 |
| 20260503204003 | 38 | 55 | 2.0 | 11.0 | 0.17 | 0.80 | 0.80 | 98 | 995.7 |
| 20260503203004 | 38 | 16 | 1.0 | 4.0 | 0.19 | 0.79 | 0.79 | 98 | 996.4 |
| 20260503202003 | 38 | 27 | 1.0 | 4.0 | 0.22 | 0.77 | 0.77 | 98 | 996.8 |
| 20260503201004 | 37 | 57 | 1.0 | 6.0 | 0.26 | 0.75 | 0.75 | 97 | 997.1 |
| 20260503200003 | 37 | 64 | 1.0 | 6.0 | 0.29 | 0.71 | 0.71 | 97 | 997.8 |
| 20260503195003 | 37 | 67 | 2.0 | 9.0 | 0.29 | 0.67 | 0.67 | 97 | 998.1 |
| 20260503194003 | 37 | 51 | 2.0 | 7.0 | 0.30 | 0.63 | 0.63 | 96 | 997.8 |
| 20260503193003 | 37 | 53 | 2.0 | 7.0 | 0.31 | 0.60 | 0.60 | 96 | 998.1 |
| 20260503192003 | 37 | 63 | 3.0 | 10.0 | 0.29 | 0.55 | 0.55 | 95 | 998.5 |
| 20260503191004 | 38 | 65 | 3.0 | 11.0 | 0.27 | 0.49 | 0.49 | 95 | 999.2 |
| 20260503190003 | 39 | 67 | 3.0 | 9.0 | 0.23 | 0.42 | 0.42 | 95 | 999.5 |
| 20260503185003 | 39 | 72 | 4.0 | 11.0 | 0.22 | 0.38 | 0.38 | 94 | 999.8 |
| 20260503184003 | 40 | 76 | 3.0 | 11.0 | 0.20 | 0.33 | 0.33 | 95 | 999.5 |
| 20260503183003 | 40 | 68 | 3.0 | 14.0 | 0.18 | 0.29 | 0.29 | 94 | 999.8 |
| 20260503182004 | 41 | 77 | 3.0 | 11.0 | 0.18 | 0.26 | 0.26 | 94 | 999.8 |
| 20260503181004 | 41 | 78 | 3.0 | 8.0 | 0.16 | 0.22 | 0.22 | 94 | 999.8 |
| 20260503180004 | 42 | 80 | 4.0 | 11.0 | 0.14 | 0.19 | 0.19 | 93 | 1000.2 |
| 20260503175003 | 43 | 82 | 3.0 | 9.0 | 0.12 | 0.16 | 0.16 | 94 | 1000.5 |
| 20260503174003 | 43 | 60 | 3.0 | 10.0 | 0.10 | 0.13 | 0.13 | 94 | 1000.9 |
| 20260503173003 | 44 | 79 | 3.0 | 9.0 | 0.08 | 0.11 | 0.11 | 94 | 1000.5 |
| 20260503172003 | 45 | 74 | 4.0 | 13.0 | 0.05 | 0.08 | 0.08 | 93 | 1000.9 |
| 20260503171003 | 45 | 79 | 3.0 | 10.0 | 0.04 | 0.06 | 0.06 | 91 | 1001.2 |
| 20260503151003 | 47 | 98 | 1.0 | 4.0 | 0.01 | 0.02 | 0.02 | 85 | 1004.3 |
| 20260503131003 | 45 | 126 | 0.0 | 1.0 | 0.00 | 0.00 | 0.00 | 75 | 1007.7 |
| 20260503081003 | 43 | 201 | 1.0 | 2.0 | 0.00 | 0.00 | 0.00 | 66 | 1009.4 |
| 20260503072004 | 42 | 0 | 0.0 | 0.0 | 0.00 | 0.00 | 0.00 | 75 | 1009.4 |
| 20260503071004 | 42 | 0 | 0.0 | 0.0 | 0.00 | 0.00 | 0.00 | 77 | 1009.7 |
| 20260503055003 | 43 | 73 | 0.0 | 1.0 | 0.00 | 0.00 | 0.00 | 75 | 1010.7 |
| 20260503054003 | 43 | 81 | 0.0 | 2.0 | 0.00 | 0.00 | 0.00 | 74 | 1010.4 |
| 20260503053003 | 43 | 280 | 0.0 | 3.0 | 0.00 | 0.00 | 0.00 | 74 | 1011.1 |
| 20260503052003 | 44 | 212 | 0.0 | 2.0 | 0.00 | 0.00 | 0.00 | 71 | 1011.1 |
| 20260503051004 | 44 | 206 | 0.0 | 2.0 | 0.00 | 0.00 | 0.00 | 70 | 1011.1 |
| 20260503050003 | 44 | 198 | 1.0 | 2.0 | 0.00 | 0.00 | 0.00 | 74 | 1011.4 |
| 20260503045003 | 44 | 206 | 0.0 | 3.0 | 0.00 | 0.00 | 0.00 | 77 | 1011.1 |
| 20260503044004 | 44 | 230 | 0.0 | 1.0 | 0.00 | 0.00 | 0.00 | 77 | 1011.4 |
| 20260503043004 | 44 | 147 | 0.0 | 1.0 | 0.00 | 0.00 | 0.00 | 76 | 1011.4 |
| 20260503042003 | 44 | 207 | 0.0 | 1.0 | 0.00 | 0.00 | 0.00 | 78 | 1011.8 |
| 20260503041003 | 44 | 0 | 0.0 | 0.0 | 0.00 | 0.00 | 0.00 | 79 | 1011.8 |
| 20260503040004 | 44 | 0 | 0.0 | 0.0 | 0.00 | 0.00 | 0.00 | 78 | 1011.8 |
| 20260503035004 | 45 | 0 | 0.0 | 0.0 | 0.00 | 0.00 | 0.00 | 74 | 1012.1 |
| 20260503034004 | 45 | 179 | 0.0 | 1.0 | 0.00 | 0.00 | 0.00 | 72 | 1012.1 |
| 20260503033003 | 46 | 169 | 0.0 | 1.0 | 0.00 | 0.00 | 0.00 | 74 | 1012.1 |
| 20260503032003 | 46 | 174 | 0.0 | 1.0 | 0.00 | 0.00 | 0.00 | 71 | 1012.4 |
| 20260503031003 | 46 | 197 | 0.0 | 2.0 | 0.00 | 0.00 | 0.00 | 70 | 1012.1 |
| 20260503030004 | 46 | 214 | 1.0 | 3.0 | 0.00 | 0.00 | 0.00 | 71 | 1012.4 |
| 20260503025003 | 47 | 62 | 1.0 | 3.0 | 0.00 | 0.00 | 0.00 | 69 | 1011.4 |
| 20260503024004 | 47 | 182 | 0.0 | 1.0 | 0.00 | 0.00 | 0.00 | 68 | 1012.4 |
| 20260503023003 | 47 | 216 | 0.0 | 1.0 | 0.00 | 0.00 | 0.00 | 65 | 1012.4 |
| 20260503022003 | 47 | 212 | 1.0 | 3.0 | 0.00 | 0.00 | 0.00 | 63 | 1012.4 |
| 20260503021003 | 47 | 218 | 0.0 | 1.0 | 0.00 | 0.01 | 0.00 | 61 | 1012.4 |
| 20260503020004 | 47 | 0 | 0.0 | 0.0 | 0.00 | 0.01 | 0.00 | 72 | 1012.4 |
| 20260503015003 | 47 | 0 | 0.0 | 0.0 | 0.00 | 0.01 | 0.00 | 67 | 1012.4 |
| 20260503014004 | 47 | 219 | 0.0 | 1.0 | 0.00 | 0.01 | 0.00 | 68 | 1012.4 |
| 20260503013003 | 47 | 0 | 0.0 | 0.0 | 0.00 | 0.01 | 0.00 | 62 | 1012.1 |
| 20260503012003 | 47 | 0 | 0.0 | 0.0 | 0.00 | 0.02 | 0.00 | 64 | 1012.4 |
| 20260503011004 | 48 | 0 | 0.0 | 0.0 | 0.00 | 0.02 | 0.00 | 66 | 1012.4 |
| 20260503010004 | 49 | 0 | 0.0 | 0.0 | 0.00 | 0.02 | 0.00 | 62 | 1012.4 |
| 20260503005003 | 49 | 217 | 0.0 | 1.0 | 0.00 | 0.02 | 0.00 | 61 | 1012.4 |
| 20260503004003 | 50 | 217 | 0.0 | 1.0 | 0.00 | 0.04 | 0.00 | 56 | 1012.4 |
| 20260503003003 | 50 | 212 | 0.0 | 1.0 | 0.00 | 0.05 | 0.00 | 55 | 1012.4 |
| 20260503002004 | 51 | 201 | 0.0 | 2.0 | 0.00 | 0.05 | 0.00 | 55 | 1012.8 |
| 20260503001003 | 51 | 206 | 1.0 | 3.0 | 0.00 | 0.05 | 0.00 | 54 | 1012.4 |
| 20260503000003 | 51 | 249 | 1.0 | 7.0 | 0.00 | 0.05 | 0.00 | 54 | 1012.1 |
| 20260502235003 | 52 | 184 | 1.0 | 3.0 | 0.00 | 0.05 | 0.00 | 57 | 1012.1 |
| 20260502234003 | 51 | 265 | 0.0 | 3.0 | 0.00 | 0.05 | 0.00 | 57 | 1012.1 |
| 20260502233003 | 52 | 275 | 0.0 | 1.0 | 0.00 | 0.05 | 0.00 | 58 | 1011.8 |
| 20260502232004 | 52 | 276 | 0.0 | 1.0 | 0.00 | 0.05 | 0.00 | 59 | 1011.4 |
| 20260502231003 | 53 | 0 | 0.0 | 0.0 | 0.00 | 0.05 | 0.00 | 56 | 1011.8 |
| 20260502230004 | 53 | 0 | 0.0 | 0.0 | 0.00 | 0.05 | 0.00 | 52 | 1011.4 |
| 20260502225003 | 54 | 283 | 0.0 | 1.0 | 0.00 | 0.05 | 0.00 | 50 | 1011.4 |
| 20260502224003 | 54 | 287 | 1.0 | 3.0 | 0.00 | 0.05 | 0.00 | 48 | 1011.4 |
| 20260502223004 | 55 | 278 | 1.0 | 7.0 | 0.00 | 0.05 | 0.00 | 48 | 1011.4 |
| 20260502222003 | 55 | 275 | 2.0 | 6.0 | 0.00 | 0.05 | 0.00 | 48 | 1011.4 |
| 20260502221003 | 55 | 264 | 2.0 | 9.0 | 0.00 | 0.05 | 0.00 | 50 | 1011.4 |
| 20260502220003 | 56 | 251 | 2.0 | 13.0 | 0.00 | 0.05 | 0.00 | 46 | 1011.4 |
| 20260502215003 | 56 | 222 | 2.0 | 7.0 | 0.00 | 0.05 | 0.00 | 43 | 1011.4 |
| 20260502214003 | 57 | 202 | 2.0 | 7.0 | 0.00 | 0.05 | 0.00 | 43 | 1011.1 |
| 20260502213003 | 57 | 208 | 2.0 | 8.0 | 0.00 | 0.05 | 0.00 | 42 | 1010.7 |
| 20260502212004 | 58 | 244 | 3.0 | 15.0 | 0.00 | 0.05 | 0.00 | 41 | 1010.4 |
| 20260502211003 | 58 | 237 | 1.0 | 8.0 | 0.00 | 0.05 | 0.00 | 42 | 1010.4 |